Time,TemperatureF,DewpointF,PressureIn,WindDirection,WindDirectionDegrees,WindSpeedMPH,WindSpeedGustMPH,Humidity,HourlyPrecipIn,Conditions,Clouds,dailyrainin,SoftwareType,DateUTC
2013-11-19 00:01:00,33.8,25.7,29.94,NW,306,15.0,15.0,72,0.00,RA,,0.00,WeatherDisplay:10.37,2013-11-19 05:01:00,
2013-11-19 00:02:00,33.8,25.7,29.94,SW,227,12.7,12.7,72,0.00,RA,,0.00,WeatherDisplay:10.37,2013-11-19 05:02:00,
2013-11-19 00:07:00,33.8,25.7,29.94,West,277,15.0,15.0,72,0.00,RA,,0.00,WeatherDisplay:10.37,2013-11-19 05:07:00,
2013-11-19 00:12:00,33.8,25.7,29.94,NNW,346,5.8,5.8,72,0.00,OVC,,0.00,WeatherDisplay:10.37,2013-11-19 05:12:00,
2013-11-19 00:17:00,33.8,25.7,29.94,NW,321,15.0,15.0,72,0.00,OVC,,0.00,WeatherDisplay:10.37,2013-11-19 05:17:00,
2013-11-19 00:22:00,33.8,25.7,29.94,NNW,338,15.0,15.0,72,0.00,OVC,,0.00,WeatherDisplay:10.37,2013-11-19 05:22:00,
2013-11-19 00:27:00,33.6,25.9,29.94,NW,324,15.0,15.0,73,0.00,OVC,,0.00,WeatherDisplay:10.37,2013-11-19 05:27:00,
2013-11-19 00:32:00,33.6,25.9,29.94,WNW,284,11.5,11.5,73,0.00,OVC,,0.00,WeatherDisplay:10.37,2013-11-19 05:32:00,
2013-11-19 00:37:00,33.6,25.9,29.94,NNW,339,10.4,10.4,73,0.00,OVC,,0.00,WeatherDisplay:10.37,2013-11-19 05:37:00,
2013-11-19 00:42:00,33.6,25.9,29.94,NNW,344,16.8,16.8,73,0.00,OVC,,0.00,WeatherDisplay:10.37,2013-11-19 05:42:00,
2013-11-19 00:47:00,33.6,25.9,29.94,NNW,328,15.0,15.0,73,0.00,OVC,,0.00,WeatherDisplay:10.37,2013-11-19 05:47:00,
2013-11-19 00:52:00,33.6,26.5,29.94,NNW,344,17.3,17.3,75,0.00,OVC,,0.00,WeatherDisplay:10.37,2013-11-19 05:52:00,
2013-11-19 00:57:00,33.6,26.5,29.94,NNW,332,13.8,13.8,75,0.00,OVC,,0.00,WeatherDisplay:10.37,2013-11-19 05:57:00,
2013-11-19 01:02:00,33.4,26.4,29.94,NW,315,9.2,9.2,75,0.00,OVC,,0.00,WeatherDisplay:10.37,2013-11-19 06:02:00,
2013-11-19 01:07:00,33.4,26.4,29.94,NNW,331,17.3,17.3,75,0.00,OVC,,0.00,WeatherDisplay:10.37,2013-11-19 06:07:00,
2013-11-19 01:12:00,33.3,26.2,29.94,NW,307,15.0,15.0,75,0.00,OVC,,0.00,WeatherDisplay:10.37,2013-11-19 06:12:00,
2013-11-19 01:17:00,33.3,26.8,29.94,North,8,15.0,15.0,77,0.00,OVC,,0.00,WeatherDisplay:10.37,2013-11-19 06:17:00,
2013-11-19 01:22:00,33.1,26.7,29.94,NNW,335,12.7,12.7,77,0.00,OVC,,0.00,WeatherDisplay:10.37,2013-11-19 06:22:00,
2013-11-19 01:27:00,33.1,26.7,29.94,NW,315,10.4,10.4,77,0.00,OVC,,0.00,WeatherDisplay:10.37,2013-11-19 06:27:00,
2013-11-19 01:32:00,33.1,26.7,29.94,NNW,335,11.5,12.3,77,0.00,OVC,,0.00,WeatherDisplay:10.37,2013-11-19 06:32:00,
2013-11-19 01:37:00,32.9,26.5,29.94,NW,324,12.7,12.7,77,0.00,OVC,,0.00,WeatherDisplay:10.37,2013-11-19 06:37:00,
2013-11-19 01:42:00,32.7,26.3,29.94,NNW,345,12.7,12.7,77,0.00,OVC,,0.00,WeatherDisplay:10.37,2013-11-19 06:42:00,
2013-11-19 01:47:00,32.7,25.7,29.94,WNW,289,17.4,17.4,75,0.00,OVC,,0.00,WeatherDisplay:10.37,2013-11-19 06:47:00,
2013-11-19 01:52:00,32.7,25.7,29.97,NNW,327,15.0,15.0,75,0.00,OVC,,0.00,WeatherDisplay:10.37,2013-11-19 06:52:00,
2013-11-19 01:57:00,32.7,25.7,29.97,WNW,299,12.7,12.7,75,0.00,OVC,,0.00,WeatherDisplay:10.37,2013-11-19 06:57:00,
2013-11-19 02:02:00,32.5,25.5,29.97,NW,306,12.7,12.7,75,0.00,OVC,,0.00,WeatherDisplay:10.37,2013-11-19 07:02:00,
2013-11-19 02:07:00,32.5,26.1,29.97,NNW,339,17.3,17.3,77,0.00,OVC,,0.00,WeatherDisplay:10.37,2013-11-19 07:07:00,
2013-11-19 02:12:00,32.5,26.1,29.97,NW,320,12.7,12.7,77,0.00,OVC,,0.00,WeatherDisplay:10.37,2013-11-19 07:12:00,
2013-11-19 02:17:00,32.5,26.1,29.97,West,273,12.7,12.7,77,0.00,OVC,,0.00,WeatherDisplay:10.37,2013-11-19 07:17:00,
2013-11-19 02:22:00,32.4,26.0,29.97,NW,325,13.2,13.2,77,0.00,OVC,,0.00,WeatherDisplay:10.37,2013-11-19 07:22:00,
2013-11-19 02:27:00,32.4,26.6,29.97,WNW,297,15.0,15.0,79,0.00,OVC,,0.00,WeatherDisplay:10.37,2013-11-19 07:27:00,
2013-11-19 02:32:00,32.2,26.7,29.97,North,349,19.7,19.7,80,0.00,OVC,,0.00,WeatherDisplay:10.37,2013-11-19 07:32:00,
2013-11-19 02:37:00,31.8,26.4,29.97,NNW,343,11.5,11.5,80,0.00,OVC,,0.00,WeatherDisplay:10.37,2013-11-19 07:37:00,
2013-11-19 02:42:00,31.6,26.2,29.97,NNW,338,13.6,13.6,80,0.00,OVC,,0.00,WeatherDisplay:10.37,2013-11-19 07:42:00,
2013-11-19 02:47:00,31.5,26.0,29.97,NNW,346,15.0,15.0,80,0.00,OVC,,0.00,WeatherDisplay:10.37,2013-11-19 07:47:00,
2013-11-19 02:52:00,31.5,26.0,29.97,NNW,330,12.7,12.7,80,0.00,OVC,,0.00,WeatherDisplay:10.37,2013-11-19 07:52:00,
2013-11-19 02:57:00,31.3,25.8,29.97,NW,307,12.7,12.7,80,0.00,OVC,,0.00,WeatherDisplay:10.37,2013-11-19 07:57:00,
2013-11-19 03:02:00,31.1,25.7,29.97,NW,325,17.3,17.3,80,0.00,OVC,,0.00,WeatherDisplay:10.37,2013-11-19 08:02:00,
2013-11-19 03:07:00,31.1,25.7,29.97,North,0,10.4,10.4,80,0.00,OVC,,0.00,WeatherDisplay:10.37,2013-11-19 08:07:00,
2013-11-19 03:12:00,31.1,25.7,29.97,NW,317,12.7,12.7,80,0.00,OVC,,0.00,WeatherDisplay:10.37,2013-11-19 08:12:00,
2013-11-19 03:17:00,30.9,25.5,29.97,NNW,343,15.0,15.0,80,0.00,OVC,,0.00,WeatherDisplay:10.37,2013-11-19 08:17:00,
2013-11-19 03:22:00,30.7,25.0,29.97,WNW,298,15.0,15.0,79,0.00,OVC,,0.00,WeatherDisplay:10.37,2013-11-19 08:22:00,
2013-11-19 03:27:00,30.7,25.0,29.97,WNW,293,9.2,9.2,79,0.00,OVC,,0.00,WeatherDisplay:10.37,2013-11-19 08:27:00,
2013-11-19 03:32:00,30.7,25.0,29.97,NW,313,17.3,17.3,79,0.00,OVC,,0.00,WeatherDisplay:10.37,2013-11-19 08:32:00,
2013-11-19 03:37:00,30.6,24.8,30.00,NW,322,12.7,12.7,79,0.00,OVC,,0.00,WeatherDisplay:10.37,2013-11-19 08:37:00,
2013-11-19 03:42:00,30.6,24.2,30.00,North,353,12.7,12.7,77,0.00,OVC,,0.00,WeatherDisplay:10.37,2013-11-19 08:42:00,
2013-11-19 03:47:00,30.4,23.4,30.00,NNW,332,12.7,12.7,75,0.00,OVC,,0.00,WeatherDisplay:10.37,2013-11-19 08:47:00,
2013-11-19 03:52:00,30.2,23.2,30.00,NNW,341,12.7,12.7,75,0.00,OVC,,0.00,WeatherDisplay:10.37,2013-11-19 08:52:00,
2013-11-19 03:57:00,30.2,23.2,30.00,NW,315,12.7,12.7,75,0.00,OVC,,0.00,WeatherDisplay:10.37,2013-11-19 08:57:00,
2013-11-19 04:02:00,30.0,23.1,30.00,NNW,338,13.8,13.8,75,0.00,OVC,,0.00,WeatherDisplay:10.37,2013-11-19 09:02:00,
2013-11-19 04:07:00,30.0,23.1,30.00,NW,318,8.1,8.1,75,0.00,OVC,,0.00,WeatherDisplay:10.37,2013-11-19 09:07:00,
2013-11-19 04:12:00,30.0,23.1,30.00,WNW,301,15.0,15.0,75,0.00,OVC,,0.00,WeatherDisplay:10.37,2013-11-19 09:12:00,
2013-11-19 04:17:00,30.0,23.1,30.00,NW,304,11.5,11.5,75,0.00,OVC,,0.00,WeatherDisplay:10.37,2013-11-19 09:17:00,
2013-11-19 04:22:00,29.8,23.5,30.00,WNW,293,12.7,12.7,77,0.00,OVC,,0.00,WeatherDisplay:10.37,2013-11-19 09:22:00,
2013-11-19 04:27:00,30.0,23.7,30.00,NW,326,17.3,17.3,77,0.00,OVC,,0.00,WeatherDisplay:10.37,2013-11-19 09:27:00,
2013-11-19 04:32:00,29.8,23.5,30.00,NNW,335,12.7,12.7,77,0.00,OVC,,0.00,WeatherDisplay:10.37,2013-11-19 09:32:00,
2013-11-19 04:37:00,29.8,23.5,30.00,NW,314,17.3,17.3,77,0.00,OVC,,0.00,WeatherDisplay:10.37,2013-11-19 09:37:00,
2013-11-19 04:42:00,29.8,23.5,30.00,NNW,341,17.3,17.3,77,0.00,OVC,,0.00,WeatherDisplay:10.37,2013-11-19 09:42:00,
2013-11-19 04:47:00,29.8,23.5,30.00,NNW,335,11.5,11.5,77,0.00,OVC,,0.00,WeatherDisplay:10.37,2013-11-19 09:47:00,
2013-11-19 04:52:00,29.8,23.5,30.00,NNW,329,12.7,12.7,77,0.00,OVC,,0.00,WeatherDisplay:10.37,2013-11-19 09:52:00,
2013-11-19 04:57:00,29.8,23.5,30.00,NW,326,15.0,15.0,77,0.00,OVC,,0.00,WeatherDisplay:10.37,2013-11-19 09:57:00,
2013-11-19 05:02:00,29.8,23.5,30.00,North,349,11.5,11.5,77,0.00,OVC,,0.00,WeatherDisplay:10.37,2013-11-19 10:02:00,
2013-11-19 05:08:00,29.8,23.5,30.03,NW,315,15.0,15.0,77,0.00,OVC,,0.00,WeatherDisplay:10.37,2013-11-19 10:08:00,
2013-11-19 05:13:00,30.0,23.7,30.03,WNW,296,12.7,12.7,77,0.00,OVC,,0.00,WeatherDisplay:10.37,2013-11-19 10:13:00,
2013-11-19 05:18:00,30.0,23.7,30.03,North,353,15.0,15.0,77,0.00,OVC,,0.00,WeatherDisplay:10.37,2013-11-19 10:18:00,
2013-11-19 05:23:00,30.0,23.7,30.03,NNW,343,20.7,20.7,77,0.00,OVC,,0.00,WeatherDisplay:10.37,2013-11-19 10:23:00,
2013-11-19 05:28:00,30.0,23.7,30.03,NW,324,12.7,12.7,77,0.00,OVC,,0.00,WeatherDisplay:10.37,2013-11-19 10:28:00,
2013-11-19 05:33:00,30.0,23.7,30.03,NNW,339,12.7,12.7,77,0.00,OVC,,0.00,WeatherDisplay:10.37,2013-11-19 10:33:00,
2013-11-19 05:38:00,30.0,23.7,30.03,NNW,329,10.4,10.4,77,0.00,OVC,,0.00,WeatherDisplay:10.37,2013-11-19 10:38:00,
2013-11-19 05:43:00,30.0,23.7,30.03,NNW,330,10.4,10.4,77,0.00,OVC,,0.00,WeatherDisplay:10.37,2013-11-19 10:43:00,
2013-11-19 05:48:00,30.0,23.7,30.03,NNW,341,8.1,8.1,77,0.00,OVC,,0.00,WeatherDisplay:10.37,2013-11-19 10:48:00,
2013-11-19 05:53:00,30.0,23.7,30.03,North,353,12.7,12.7,77,0.00,OVC,,0.00,WeatherDisplay:10.37,2013-11-19 10:53:00,
2013-11-19 05:58:00,29.8,23.5,30.03,NNW,348,15.0,15.0,77,0.00,OVC,,0.00,WeatherDisplay:10.37,2013-11-19 10:58:00,
2013-11-19 06:03:00,30.0,23.7,30.03,WNW,286,12.7,12.7,77,0.00,OVC,,0.00,WeatherDisplay:10.37,2013-11-19 11:03:00,
2013-11-19 06:08:00,30.0,24.3,30.03,NNW,333,21.9,21.9,79,0.00,OVC,,0.00,WeatherDisplay:10.37,2013-11-19 11:08:00,
2013-11-19 06:13:00,30.0,23.7,30.03,NW,311,15.0,15.0,77,0.00,OVC,,0.00,WeatherDisplay:10.37,2013-11-19 11:13:00,
2013-11-19 06:18:00,29.8,23.5,30.03,NNW,343,12.7,12.7,77,0.00,OVC,,0.00,WeatherDisplay:10.37,2013-11-19 11:18:00,
2013-11-19 06:23:00,29.8,23.5,30.03,NNW,348,18.4,18.4,77,0.00,OVC,,0.00,WeatherDisplay:10.37,2013-11-19 11:23:00,
2013-11-19 06:28:00,29.8,23.5,30.03,NW,322,18.4,18.4,77,0.00,OVC,,0.00,WeatherDisplay:10.37,2013-11-19 11:28:00,
2013-11-19 06:33:00,29.8,23.5,30.03,NNE,21,15.0,15.0,77,0.00,OVC,,0.00,WeatherDisplay:10.37,2013-11-19 11:33:00,
2013-11-19 06:38:00,29.8,23.5,30.06,NNW,335,17.3,17.3,77,0.00,OVC,,0.00,WeatherDisplay:10.37,2013-11-19 11:38:00,
2013-11-19 06:43:00,29.8,23.5,30.06,NNW,330,15.0,15.0,77,0.00,OVC,,0.00,WeatherDisplay:10.37,2013-11-19 11:43:00,
2013-11-19 06:48:00,29.8,23.5,30.06,North,357,17.3,17.3,77,0.00,OVC,,0.00,WeatherDisplay:10.37,2013-11-19 11:48:00,
2013-11-19 06:53:00,29.8,23.5,30.06,NNW,327,8.1,8.1,77,0.00,OVC,,0.00,WeatherDisplay:10.37,2013-11-19 11:53:00,
2013-11-19 06:58:00,29.8,23.5,30.06,NNW,327,15.0,15.0,77,0.00,OVC,,0.00,WeatherDisplay:10.37,2013-11-19 11:58:00,
2013-11-19 07:03:00,29.7,23.3,30.06,NW,315,17.9,17.9,77,0.00,OVC,,0.00,WeatherDisplay:10.37,2013-11-19 12:03:00,
2013-11-19 07:08:00,29.7,23.3,30.06,North,350,12.7,12.7,77,0.00,OVC,,0.00,WeatherDisplay:10.37,2013-11-19 12:08:00,
2013-11-19 07:13:00,29.7,23.3,30.06,North,0,15.0,15.0,77,0.00,OVC,,0.00,WeatherDisplay:10.37,2013-11-19 12:13:00,
2013-11-19 07:18:00,29.7,23.3,30.06,NNW,348,15.4,15.4,77,0.00,OVC,,0.00,WeatherDisplay:10.37,2013-11-19 12:18:00,
2013-11-19 07:23:00,29.7,23.3,30.06,North,350,21.9,21.9,77,0.00,OVC,,0.00,WeatherDisplay:10.37,2013-11-19 12:23:00,
2013-11-19 07:28:00,29.8,23.5,30.06,North,357,8.1,9.2,77,0.00,OVC,,0.00,WeatherDisplay:10.37,2013-11-19 12:28:00,
2013-11-19 07:33:00,29.8,23.5,30.06,NNW,329,15.0,15.0,77,0.00,OVC,,0.00,WeatherDisplay:10.37,2013-11-19 12:33:00,
2013-11-19 07:38:00,29.8,23.5,30.09,North,0,16.1,16.1,77,0.00,OVC,,0.00,WeatherDisplay:10.37,2013-11-19 12:38:00,
2013-11-19 07:43:00,29.8,23.5,30.09,NW,316,15.0,15.0,77,0.00,OVC,,0.00,WeatherDisplay:10.37,2013-11-19 12:43:00,
2013-11-19 07:48:00,29.8,23.5,30.09,North,357,15.0,15.0,77,0.00,OVC,,0.00,WeatherDisplay:10.37,2013-11-19 12:48:00,
2013-11-19 07:53:00,30.0,23.7,30.09,North,353,16.1,16.1,77,0.00,OVC,,0.00,WeatherDisplay:10.37,2013-11-19 12:53:00,
2013-11-19 07:58:00,30.0,23.7,30.09,NNW,338,15.0,15.0,77,0.00,OVC,,0.00,WeatherDisplay:10.37,2013-11-19 12:58:00,
2013-11-19 08:03:00,30.0,23.7,30.09,NW,325,8.7,8.7,77,0.00,OVC,,0.00,WeatherDisplay:10.37,2013-11-19 13:03:00,
2013-11-19 08:08:00,30.0,23.7,30.09,North,353,15.0,15.0,77,0.00,OVC,,0.00,WeatherDisplay:10.37,2013-11-19 13:08:00,
2013-11-19 08:13:00,30.0,23.7,30.09,NNW,333,12.7,12.7,77,0.00,OVC,,0.00,WeatherDisplay:10.37,2013-11-19 13:13:00,
2013-11-19 08:18:00,30.0,23.7,30.09,NNW,327,17.3,17.3,77,0.00,OVC,,0.00,WeatherDisplay:10.37,2013-11-19 13:18:00,
2013-11-19 08:23:00,30.2,23.9,30.09,NNW,341,15.0,15.0,77,0.00,OVC,,0.00,WeatherDisplay:10.37,2013-11-19 13:23:00,
2013-11-19 08:28:00,30.2,23.9,30.09,WNW,300,15.0,15.0,77,0.00,OVC,,0.00,WeatherDisplay:10.37,2013-11-19 13:28:00,
2013-11-19 08:33:00,30.2,23.9,30.09,NW,314,10.4,10.4,77,0.00,OVC,,0.00,WeatherDisplay:10.37,2013-11-19 13:33:00,
2013-11-19 08:38:00,30.2,23.9,30.09,NW,314,12.7,12.7,77,0.00,OVC,,0.00,WeatherDisplay:10.37,2013-11-19 13:38:00,
2013-11-19 08:43:00,30.2,23.9,30.09,NW,321,11.5,11.5,77,0.00,OVC,,0.00,WeatherDisplay:10.37,2013-11-19 13:43:00,
2013-11-19 08:48:00,30.4,24.0,30.09,NNW,330,13.8,13.8,77,0.00,OVC,,0.00,WeatherDisplay:10.37,2013-11-19 13:48:00,
2013-11-19 08:53:00,30.4,24.0,30.09,WNW,303,12.7,12.7,77,0.00,OVC,,0.00,WeatherDisplay:10.37,2013-11-19 13:53:00,
2013-11-19 08:58:00,30.6,24.2,30.09,NNW,341,12.7,12.7,77,0.00,OVC,,0.00,WeatherDisplay:10.37,2013-11-19 13:58:00,
2013-11-19 09:03:00,30.6,24.2,30.09,NNW,338,10.1,10.1,77,0.00,OVC,,0.00,WeatherDisplay:10.37,2013-11-19 14:03:00,
2013-11-19 09:08:00,30.6,24.2,30.12,West,279,12.7,12.7,77,0.00,OVC,,0.00,WeatherDisplay:10.37,2013-11-19 14:08:00,
2013-11-19 09:13:00,30.6,24.2,30.12,NW,304,12.7,12.7,77,0.00,OVC,,0.00,WeatherDisplay:10.37,2013-11-19 14:13:00,
2013-11-19 09:18:00,30.7,24.4,30.12,NNW,330,13.8,13.8,77,0.00,OVC,,0.00,WeatherDisplay:10.37,2013-11-19 14:18:00,
2013-11-19 09:24:00,30.7,24.4,30.12,North,353,9.2,9.2,77,0.00,OVC,,0.00,WeatherDisplay:10.37,2013-11-19 14:24:00,
2013-11-19 09:28:00,30.7,24.4,30.12,NNW,341,12.7,12.7,77,0.00,OVC,,0.00,WeatherDisplay:10.37,2013-11-19 14:28:00,
2013-11-19 09:33:00,30.7,25.0,30.12,NNW,329,8.3,8.3,79,0.00,OVC,,0.00,WeatherDisplay:10.37,2013-11-19 14:33:00,
2013-11-19 09:38:00,30.7,24.4,30.12,NNW,330,12.7,12.7,77,0.00,OVC,,0.00,WeatherDisplay:10.37,2013-11-19 14:38:00,
2013-11-19 09:43:00,30.7,24.4,30.12,NNW,331,10.4,10.4,77,0.00,OVC,,0.00,WeatherDisplay:10.37,2013-11-19 14:43:00,
2013-11-19 09:48:00,30.9,25.2,30.12,NW,313,12.7,12.7,79,0.00,OVC,,0.00,WeatherDisplay:10.37,2013-11-19 14:48:00,
2013-11-19 09:53:00,30.9,24.6,30.12,NNW,339,12.7,12.7,77,0.00,OVC,,0.00,WeatherDisplay:10.37,2013-11-19 14:53:00,
2013-11-19 09:58:00,30.9,25.2,30.12,NNW,344,17.3,17.3,79,0.00,OVC,,0.00,WeatherDisplay:10.37,2013-11-19 14:58:00,
2013-11-19 10:03:00,30.9,24.6,30.12,North,353,17.3,17.3,77,0.00,OVC,,0.00,WeatherDisplay:10.37,2013-11-19 15:03:00,
2013-11-19 10:08:00,30.9,24.6,30.12,NW,314,9.2,9.2,77,0.00,OVC,,0.00,WeatherDisplay:10.37,2013-11-19 15:08:00,
2013-11-19 10:13:00,31.1,25.3,30.12,NW,321,12.7,12.7,79,0.00,OVC,,0.00,WeatherDisplay:10.37,2013-11-19 15:13:00,
2013-11-19 10:18:00,31.1,25.3,30.12,NNW,328,9.2,9.2,79,0.00,OVC,,0.00,WeatherDisplay:10.37,2013-11-19 15:18:00,
2013-11-19 10:23:00,31.3,24.9,30.15,NNW,344,15.0,15.0,77,0.00,OVC,,0.00,WeatherDisplay:10.37,2013-11-19 15:23:00,
2013-11-19 10:28:00,31.3,25.5,30.15,NW,314,11.5,11.5,79,0.00,OVC,,0.00,WeatherDisplay:10.37,2013-11-19 15:28:00,
2013-11-19 10:33:00,31.3,25.5,30.15,NNW,346,17.3,17.3,79,0.00,OVC,,0.00,WeatherDisplay:10.37,2013-11-19 15:33:00,
2013-11-19 10:38:00,31.3,25.5,30.15,NNW,346,18.4,18.4,79,0.00,OVC,,0.00,WeatherDisplay:10.37,2013-11-19 15:38:00,
2013-11-19 10:43:00,31.3,25.5,30.15,NNW,335,12.7,12.7,79,0.00,OVC,,0.00,WeatherDisplay:10.37,2013-11-19 15:43:00,
2013-11-19 10:48:00,31.1,24.7,30.15,North,350,13.2,13.2,77,0.00,OVC,,0.00,WeatherDisplay:10.37,2013-11-19 15:48:00,
2013-11-19 10:53:00,31.3,24.9,30.15,NW,322,17.3,17.3,77,0.00,OVC,,0.00,WeatherDisplay:10.37,2013-11-19 15:53:00,
2013-11-19 10:58:00,31.3,24.9,30.15,NNW,343,25.3,25.3,77,0.00,OVC,,0.00,WeatherDisplay:10.37,2013-11-19 15:58:00,
2013-11-19 11:03:00,31.3,25.5,30.15,NW,317,9.2,9.2,79,0.00,OVC,,0.00,WeatherDisplay:10.37,2013-11-19 16:03:00,
2013-11-19 11:08:00,31.5,25.7,30.15,NNW,329,8.1,8.1,79,0.00,OVC,,0.00,WeatherDisplay:10.37,2013-11-19 16:08:00,
2013-11-19 11:13:00,31.5,25.1,30.15,North,353,13.2,13.2,77,0.00,OVC,,0.00,WeatherDisplay:10.37,2013-11-19 16:13:00,
2013-11-19 11:18:00,31.5,25.7,30.15,WNW,296,10.9,10.9,79,0.00,OVC,,0.00,WeatherDisplay:10.37,2013-11-19 16:18:00,
2013-11-19 11:23:00,31.6,25.3,30.15,NNW,341,8.1,8.7,77,0.00,OVC,,0.00,WeatherDisplay:10.37,2013-11-19 16:23:00,
2013-11-19 11:28:00,31.6,25.3,30.15,NW,304,13.8,13.8,77,0.00,OVC,,0.00,WeatherDisplay:10.37,2013-11-19 16:28:00,
2013-11-19 11:33:00,31.6,25.3,30.15,NW,317,12.7,12.7,77,0.00,OVC,,0.00,WeatherDisplay:10.37,2013-11-19 16:33:00,
2013-11-19 11:38:00,31.6,25.3,30.15,NNW,339,12.7,12.7,77,0.00,OVC,,0.00,WeatherDisplay:10.37,2013-11-19 16:38:00,
2013-11-19 11:43:00,31.6,25.3,30.15,NNW,344,13.8,13.8,77,0.00,OVC,,0.00,WeatherDisplay:10.37,2013-11-19 16:43:00,
2013-11-19 11:48:00,31.6,25.3,30.15,North,4,12.7,12.7,77,0.00,OVC,,0.00,WeatherDisplay:10.37,2013-11-19 16:48:00,
2013-11-19 11:53:00,31.6,25.3,30.15,NW,326,15.0,15.0,77,0.00,OVC,,0.00,WeatherDisplay:10.37,2013-11-19 16:53:00,
2013-11-19 11:58:00,31.8,25.4,30.15,NNW,333,12.7,12.7,77,0.00,OVC,,0.00,WeatherDisplay:10.37,2013-11-19 16:58:00,
2013-11-19 12:03:00,32.0,25.6,30.15,NW,310,8.1,8.1,77,0.00,OVC,,0.00,WeatherDisplay:10.37,2013-11-19 17:03:00,
2013-11-19 12:08:00,32.0,25.6,30.15,WNW,285,18.3,18.3,77,0.00,OVC,,0.00,WeatherDisplay:10.37,2013-11-19 17:08:00,
2013-11-19 12:13:00,32.0,25.6,30.15,NW,316,12.7,12.7,77,0.00,OVC,,0.00,WeatherDisplay:10.37,2013-11-19 17:13:00,
2013-11-19 12:18:00,32.0,25.6,30.15,NNW,331,12.7,12.7,77,0.00,OVC,,0.00,WeatherDisplay:10.37,2013-11-19 17:18:00,
2013-11-19 12:23:00,32.0,25.6,30.15,WNW,290,11.5,11.5,77,0.00,OVC,,0.00,WeatherDisplay:10.37,2013-11-19 17:23:00,
2013-11-19 12:28:00,32.2,25.8,30.15,NW,323,15.0,15.0,77,0.00,OVC,,0.00,WeatherDisplay:10.37,2013-11-19 17:28:00,
2013-11-19 12:33:00,32.4,26.0,30.15,NW,324,15.0,15.0,77,0.00,OVC,,0.00,WeatherDisplay:10.37,2013-11-19 17:33:00,
2013-11-19 12:35:00,32.4,26.0,30.15,NW,326,12.7,12.7,77,0.00,OVC,,0.00,WeatherDisplay:10.37,2013-11-19 17:35:00,
2013-11-19 12:40:00,32.4,25.3,30.15,NW,312,8.1,8.1,75,0.00,OVC,,0.00,WeatherDisplay:10.37,2013-11-19 17:40:00,
2013-11-19 12:45:00,32.2,25.1,30.15,NW,324,11.5,11.5,75,0.00,OVC,,0.00,WeatherDisplay:10.37,2013-11-19 17:45:00,
2013-11-19 12:50:00,32.2,25.1,30.15,NNW,341,13.8,13.8,75,0.00,OVC,,0.00,WeatherDisplay:10.37,2013-11-19 17:50:00,
2013-11-19 12:55:00,32.2,25.1,30.15,NW,322,15.0,15.0,75,0.00,OVC,,0.00,WeatherDisplay:10.37,2013-11-19 17:55:00,
2013-11-19 13:00:00,32.2,25.1,30.15,NW,321,11.5,11.5,75,0.00,OVC,,0.00,WeatherDisplay:10.37,2013-11-19 18:00:00,
2013-11-19 13:05:00,32.4,25.3,30.15,NW,321,11.5,11.5,75,0.00,OVC,,0.00,WeatherDisplay:10.37,2013-11-19 18:05:00,
2013-11-19 13:10:00,32.4,25.3,30.15,NW,324,8.7,9.2,75,0.00,OVC,,0.00,WeatherDisplay:10.37,2013-11-19 18:10:00,
2013-11-19 13:15:00,32.4,25.3,30.15,North,0,9.2,9.2,75,0.00,OVC,,0.00,WeatherDisplay:10.37,2013-11-19 18:15:00,
2013-11-19 13:20:00,32.5,25.5,30.15,NNW,331,12.7,12.7,75,0.00,OVC,,0.00,WeatherDisplay:10.37,2013-11-19 18:20:00,
2013-11-19 13:25:00,32.4,25.3,30.15,NNW,342,10.4,10.4,75,0.00,OVC,,0.00,WeatherDisplay:10.37,2013-11-19 18:25:00,
2013-11-19 13:30:00,32.4,25.3,30.15,NNW,332,8.1,8.1,75,0.00,OVC,,0.00,WeatherDisplay:10.37,2013-11-19 18:30:00,
2013-11-19 13:35:00,32.4,25.3,30.15,NNW,346,8.1,8.1,75,0.00,OVC,,0.00,WeatherDisplay:10.37,2013-11-19 18:35:00,
2013-11-19 13:40:00,32.5,25.5,30.15,NNW,341,15.0,15.0,75,0.00,OVC,,0.00,WeatherDisplay:10.37,2013-11-19 18:40:00,
2013-11-19 13:45:00,32.4,25.3,30.15,WNW,288,13.8,13.8,75,0.00,OVC,,0.00,WeatherDisplay:10.37,2013-11-19 18:45:00,
2013-11-19 13:50:00,32.4,25.3,30.15,NNW,343,9.2,9.2,75,0.00,OVC,,0.00,WeatherDisplay:10.37,2013-11-19 18:50:00,
2013-11-19 13:55:00,32.5,25.5,30.15,WNW,301,8.0,8.0,75,0.00,OVC,,0.00,WeatherDisplay:10.37,2013-11-19 18:55:00,
2013-11-19 14:00:00,32.5,25.5,30.15,NW,321,8.1,8.1,75,0.00,OVC,,0.00,WeatherDisplay:10.37,2013-11-19 19:00:00,
2013-11-19 14:05:00,32.5,25.5,30.15,NNW,340,10.4,10.4,75,0.00,OVC,,0.00,WeatherDisplay:10.37,2013-11-19 19:05:00,
2013-11-19 14:10:00,32.4,25.3,30.15,NW,320,10.4,10.4,75,0.00,OVC,,0.00,WeatherDisplay:10.37,2013-11-19 19:10:00,
2013-11-19 14:15:00,32.4,25.3,30.15,NNW,330,10.4,10.4,75,0.00,OVC,,0.00,WeatherDisplay:10.37,2013-11-19 19:15:00,
2013-11-19 14:20:00,32.4,25.3,30.15,NNW,337,8.1,8.1,75,0.00,OVC,,0.00,WeatherDisplay:10.37,2013-11-19 19:20:00,
2013-11-19 14:25:00,32.5,25.5,30.15,NNW,327,9.2,9.2,75,0.00,OVC,,0.00,WeatherDisplay:10.37,2013-11-19 19:25:00,
2013-11-19 14:30:00,32.4,25.3,30.15,NNW,339,8.1,8.1,75,0.00,OVC,,0.00,WeatherDisplay:10.37,2013-11-19 19:30:00,
2013-11-19 14:35:00,32.4,25.3,30.15,NNW,334,8.1,8.1,75,0.00,OVC,,0.00,WeatherDisplay:10.37,2013-11-19 19:35:00,
2013-11-19 14:40:00,32.4,25.3,30.15,NNW,327,10.4,10.4,75,0.00,OVC,,0.00,WeatherDisplay:10.37,2013-11-19 19:40:00,
2013-11-19 14:45:00,32.4,25.3,30.15,NNW,335,15.4,15.4,75,0.00,OVC,,0.00,WeatherDisplay:10.37,2013-11-19 19:45:00,
2013-11-19 14:50:00,32.4,25.3,30.15,North,353,9.2,9.2,75,0.00,OVC,,0.00,WeatherDisplay:10.37,2013-11-19 19:50:00,
2013-11-19 14:55:00,32.4,25.3,30.15,North,353,5.8,6.3,75,0.00,OVC,,0.00,WeatherDisplay:10.37,2013-11-19 19:55:00,
2013-11-19 15:00:00,32.4,25.3,30.15,NW,324,9.2,9.2,75,0.00,OVC,,0.00,WeatherDisplay:10.37,2013-11-19 20:00:00,
2013-11-19 15:05:00,32.5,25.5,30.15,NNW,341,10.4,10.4,75,0.00,OVC,,0.00,WeatherDisplay:10.37,2013-11-19 20:05:00,
2013-11-19 15:10:00,32.4,25.3,30.15,NNW,343,9.2,9.2,75,0.00,OVC,,0.00,WeatherDisplay:10.37,2013-11-19 20:10:00,
2013-11-19 15:15:00,32.4,25.3,30.15,WNW,283,9.2,9.2,75,0.00,OVC,,0.00,WeatherDisplay:10.37,2013-11-19 20:15:00,
2013-11-19 15:20:00,32.5,25.5,30.15,NW,323,10.4,10.4,75,0.00,OVC,,0.00,WeatherDisplay:10.37,2013-11-19 20:20:00,
2013-11-19 15:25:00,32.5,25.5,30.18,North,353,10.4,10.4,75,0.00,OVC,,0.00,WeatherDisplay:10.37,2013-11-19 20:25:00,
2013-11-19 15:30:00,32.7,25.7,30.18,North,10,9.2,9.2,75,0.00,OVC,,0.00,WeatherDisplay:10.37,2013-11-19 20:30:00,
2013-11-19 15:35:00,32.7,25.7,30.18,NNW,335,5.8,5.8,75,0.00,OVC,,0.00,WeatherDisplay:10.37,2013-11-19 20:35:00,
2013-11-19 15:40:00,32.5,24.8,30.18,NW,312,5.8,5.8,73,0.00,OVC,,0.00,WeatherDisplay:10.37,2013-11-19 20:40:00,
2013-11-19 15:45:00,32.5,24.8,30.18,North,353,10.9,10.9,73,0.00,OVC,,0.00,WeatherDisplay:10.37,2013-11-19 20:45:00,
2013-11-19 15:50:00,32.5,24.8,30.18,NW,310,12.7,12.7,73,0.00,OVC,,0.00,WeatherDisplay:10.37,2013-11-19 20:50:00,
2013-11-19 15:55:00,32.5,24.8,30.18,WNW,293,10.4,10.4,73,0.00,OVC,,0.00,WeatherDisplay:10.37,2013-11-19 20:55:00,
2013-11-19 16:00:00,32.5,24.8,30.18,NW,317,10.4,10.4,73,0.00,OVC,,0.00,WeatherDisplay:10.37,2013-11-19 21:00:00,
2013-11-19 16:05:00,32.5,24.8,30.18,NW,311,10.5,10.5,73,0.00,OVC,,0.00,WeatherDisplay:10.37,2013-11-19 21:05:00,
2013-11-19 16:10:00,32.4,24.7,30.18,NNW,335,5.4,5.4,73,0.00,OVC,,0.00,WeatherDisplay:10.37,2013-11-19 21:10:00,
2013-11-19 16:15:00,32.4,24.7,30.18,NW,312,9.2,9.2,73,0.00,OVC,,0.00,WeatherDisplay:10.37,2013-11-19 21:15:00,
2013-11-19 16:20:00,32.2,24.5,30.18,NW,323,8.1,8.1,73,0.00,OVC,,0.00,WeatherDisplay:10.37,2013-11-19 21:20:00,
2013-11-19 16:25:00,32.2,24.5,30.18,North,349,10.4,10.4,73,0.00,OVC,,0.00,WeatherDisplay:10.37,2013-11-19 21:25:00,
2013-11-19 16:30:00,32.2,24.5,30.18,NW,311,8.1,8.1,73,0.00,OVC,,0.00,WeatherDisplay:10.37,2013-11-19 21:30:00,
2013-11-19 16:35:00,32.2,24.5,30.18,NNW,344,5.8,5.8,73,0.00,OVC,,0.00,WeatherDisplay:10.37,2013-11-19 21:35:00,
2013-11-19 16:40:00,32.0,24.3,30.18,NNW,342,9.2,9.2,73,0.00,OVC,,0.00,WeatherDisplay:10.37,2013-11-19 21:40:00,
2013-11-19 16:45:00,32.0,24.3,30.18,NW,315,8.1,8.1,73,0.00,OVC,,0.00,WeatherDisplay:10.37,2013-11-19 21:45:00,
2013-11-19 16:50:00,31.8,24.1,30.18,NNW,341,12.7,12.7,73,0.00,OVC,,0.00,WeatherDisplay:10.37,2013-11-19 21:50:00,
2013-11-19 16:55:00,31.8,24.8,30.18,NNW,338,5.8,5.8,75,0.00,OVC,,0.00,WeatherDisplay:10.37,2013-11-19 21:55:00,
2013-11-19 17:00:00,31.8,24.8,30.18,NNW,337,8.1,8.1,75,0.00,OVC,,0.00,WeatherDisplay:10.37,2013-11-19 22:00:00,
2013-11-19 17:05:00,31.8,24.1,30.18,NW,316,8.1,8.1,73,0.00,OVC,,0.00,WeatherDisplay:10.37,2013-11-19 22:05:00,
2013-11-19 17:10:00,31.6,24.0,30.18,NW,325,8.1,8.1,73,0.00,OVC,,0.00,WeatherDisplay:10.37,2013-11-19 22:10:00,
2013-11-19 17:15:00,31.6,24.0,30.18,WNW,293,5.8,5.8,73,0.00,OVC,,0.00,WeatherDisplay:10.37,2013-11-19 22:15:00,
2013-11-19 17:20:00,31.5,23.8,30.21,NNW,341,6.3,6.3,73,0.00,OVC,,0.00,WeatherDisplay:10.37,2013-11-19 22:20:00,
2013-11-19 17:25:00,31.3,23.6,30.21,North,353,11.5,11.5,73,0.00,OVC,,0.00,WeatherDisplay:10.37,2013-11-19 22:25:00,
2013-11-19 17:30:00,31.3,23.6,30.21,North,4,9.2,9.2,73,0.00,OVC,,0.00,WeatherDisplay:10.37,2013-11-19 22:30:00,
2013-11-19 17:35:00,31.1,23.5,30.21,NNW,342,5.8,5.8,73,0.00,OVC,,0.00,WeatherDisplay:10.37,2013-11-19 22:35:00,
2013-11-19 17:40:00,30.9,23.3,30.21,NNW,339,5.8,5.8,73,0.00,OVC,,0.00,WeatherDisplay:10.37,2013-11-19 22:40:00,
2013-11-19 17:45:00,30.9,23.3,30.21,NNW,339,7.2,7.2,73,0.00,OVC,,0.00,WeatherDisplay:10.37,2013-11-19 22:45:00,
2013-11-19 17:50:00,30.7,23.1,30.21,NW,325,8.3,8.3,73,0.00,OVC,,0.00,WeatherDisplay:10.37,2013-11-19 22:50:00,
2013-11-19 17:55:00,30.6,22.9,30.21,North,353,9.2,9.2,73,0.00,OVC,,0.00,WeatherDisplay:10.37,2013-11-19 22:55:00,
2013-11-19 18:00:00,30.6,22.9,30.21,NNW,339,8.1,8.1,73,0.00,OVC,,0.00,WeatherDisplay:10.37,2013-11-19 23:00:00,
2013-11-19 18:05:00,30.4,22.8,30.21,NW,316,8.1,8.1,73,0.00,OVC,,0.00,WeatherDisplay:10.37,2013-11-19 23:05:00,
2013-11-19 18:10:00,30.4,22.8,30.21,NNW,337,5.8,5.8,73,0.00,OVC,,0.00,WeatherDisplay:10.37,2013-11-19 23:10:00,
2013-11-19 18:15:00,30.4,22.8,30.21,NNW,330,4.6,4.6,73,0.00,OVC,,0.00,WeatherDisplay:10.37,2013-11-19 23:15:00,
2013-11-19 18:20:00,30.4,22.8,30.21,North,353,8.1,8.1,73,0.00,OVC,,0.00,WeatherDisplay:10.37,2013-11-19 23:20:00,
2013-11-19 18:26:00,30.6,22.9,30.21,NNW,335,9.2,9.2,73,0.00,OVC,,0.00,WeatherDisplay:10.37,2013-11-19 23:26:00,
2013-11-19 18:31:00,30.6,22.9,30.21,NNW,348,5.8,5.8,73,0.00,OVC,,0.00,WeatherDisplay:10.37,2013-11-19 23:31:00,
2013-11-19 18:36:00,30.2,22.6,30.21,North,353,11.5,11.5,73,0.00,OVC,,0.00,WeatherDisplay:10.37,2013-11-19 23:36:00,
2013-11-19 18:41:00,30.0,22.4,30.21,NNW,332,15.0,15.0,73,0.00,OVC,,0.00,WeatherDisplay:10.37,2013-11-19 23:41:00,
2013-11-19 18:46:00,29.8,22.2,30.21,NNW,340,8.1,8.1,73,0.00,OVC,,0.00,WeatherDisplay:10.37,2013-11-19 23:46:00,
2013-11-19 18:51:00,29.8,22.2,30.21,NNW,339,10.4,10.4,73,0.00,OVC,,0.00,WeatherDisplay:10.37,2013-11-19 23:51:00,
2013-11-19 18:56:00,29.7,22.1,30.21,NW,326,11.5,11.5,73,0.00,OVC,,0.00,WeatherDisplay:10.37,2013-11-19 23:56:00,
2013-11-19 19:01:00,29.5,21.9,30.21,NNE,27,9.2,9.2,73,0.00,OVC,,0.00,WeatherDisplay:10.37,2013-11-20 00:01:00,
2013-11-19 19:06:00,29.5,21.9,30.24,NNW,345,8.1,8.1,73,0.00,OVC,,0.00,WeatherDisplay:10.37,2013-11-20 00:06:00,
2013-11-19 19:11:00,29.3,21.7,30.24,North,353,6.9,6.9,73,0.00,OVC,,0.00,WeatherDisplay:10.37,2013-11-20 00:11:00,
2013-11-19 19:16:00,28.9,21.4,30.24,NNW,329,5.8,5.8,73,0.00,OVC,,0.00,WeatherDisplay:10.37,2013-11-20 00:16:00,
2013-11-19 19:21:00,28.8,21.8,30.24,NNW,335,5.8,5.8,75,0.00,BKN,,0.00,WeatherDisplay:10.37,2013-11-20 00:21:00,
2013-11-19 19:26:00,28.8,21.8,30.24,NNW,327,8.1,8.1,75,0.00,BKN,,0.00,WeatherDisplay:10.37,2013-11-20 00:26:00,
2013-11-19 19:31:00,28.6,21.7,30.24,North,0,8.1,8.1,75,0.00,BKN,,0.00,WeatherDisplay:10.37,2013-11-20 00:31:00,
2013-11-19 19:36:00,28.6,21.7,30.24,NNW,336,8.1,8.1,75,0.00,BKN,,0.00,WeatherDisplay:10.37,2013-11-20 00:36:00,
2013-11-19 19:41:00,28.6,21.7,30.24,NNW,339,8.1,8.1,75,0.00,BKN,,0.00,WeatherDisplay:10.37,2013-11-20 00:41:00,
2013-11-19 19:46:00,28.4,21.8,30.24,NW,307,5.8,5.8,76,0.00,BKN,,0.00,WeatherDisplay:10.37,2013-11-20 00:46:00,
2013-11-19 19:51:00,28.2,21.6,30.24,NNW,331,6.3,6.3,76,0.00,BKN,,0.00,WeatherDisplay:10.37,2013-11-20 00:51:00,
2013-11-19 19:56:00,28.0,21.4,30.24,NNW,342,6.3,6.3,76,0.00,BKN,,0.00,WeatherDisplay:10.37,2013-11-20 00:56:00,
2013-11-19 20:01:00,28.0,21.4,30.24,NNW,339,5.8,5.8,76,0.00,FEW,,0.00,WeatherDisplay:10.37,2013-11-20 01:01:00,
2013-11-19 20:06:00,28.0,21.4,30.24,NNW,338,4.6,4.6,76,0.00,FEW,,0.00,WeatherDisplay:10.37,2013-11-20 01:06:00,
2013-11-19 20:11:00,28.0,21.4,30.24,NNW,331,5.8,5.8,76,0.00,FEW,,0.00,WeatherDisplay:10.37,2013-11-20 01:11:00,
2013-11-19 20:16:00,27.9,21.3,30.24,NNW,333,5.8,5.8,76,0.00,FEW,,0.00,WeatherDisplay:10.37,2013-11-20 01:16:00,
2013-11-19 20:21:00,27.7,21.1,30.24,North,353,5.8,5.8,76,0.00,FEW,,0.00,WeatherDisplay:10.37,2013-11-20 01:21:00,
2013-11-19 20:26:00,27.5,20.9,30.24,NNW,331,3.6,3.6,76,0.00,FEW,,0.00,WeatherDisplay:10.37,2013-11-20 01:26:00,
2013-11-19 20:31:00,27.1,20.6,30.24,North,353,3.5,3.5,76,0.00,FEW,,0.00,WeatherDisplay:10.37,2013-11-20 01:31:00,
2013-11-19 20:36:00,27.1,20.6,30.24,NNW,341,4.6,4.6,76,0.00,FEW,,0.00,WeatherDisplay:10.37,2013-11-20 01:36:00,
2013-11-19 20:41:00,27.0,20.4,30.24,North,357,4.6,4.6,76,0.00,FEW,,0.00,WeatherDisplay:10.37,2013-11-20 01:41:00,
2013-11-19 20:46:00,26.8,20.2,30.24,North,350,3.5,3.5,76,0.00,FEW,,0.00,WeatherDisplay:10.37,2013-11-20 01:46:00,
2013-11-19 20:51:00,26.6,20.1,30.27,NNW,333,3.5,3.5,76,0.00,FEW,,0.00,WeatherDisplay:10.37,2013-11-20 01:51:00,
2013-11-19 20:56:00,26.6,20.1,30.27,North,0,2.3,0.0,76,0.00,FEW,,0.00,WeatherDisplay:10.37,2013-11-20 01:56:00,
2013-11-19 21:01:00,26.4,19.9,30.27,North,357,4.6,4.6,76,0.00,CLR,,0.00,WeatherDisplay:10.37,2013-11-20 02:01:00,
2013-11-19 21:06:00,26.2,19.7,30.27,North,0,3.5,3.5,76,0.00,CLR,,0.00,WeatherDisplay:10.37,2013-11-20 02:06:00,
2013-11-19 21:11:00,26.2,20.3,30.27,NNW,342,4.6,4.6,78,0.00,CLR,,0.00,WeatherDisplay:10.37,2013-11-20 02:11:00,
2013-11-19 21:16:00,26.1,20.1,30.27,NNW,341,6.3,6.3,78,0.00,CLR,,0.00,WeatherDisplay:10.37,2013-11-20 02:16:00,
2013-11-19 21:21:00,26.1,20.1,30.27,NNW,343,5.8,5.8,78,0.00,CLR,,0.00,WeatherDisplay:10.37,2013-11-20 02:21:00,
2013-11-19 21:26:00,26.1,20.1,30.27,North,357,3.5,0.0,78,0.00,CLR,,0.00,WeatherDisplay:10.37,2013-11-20 02:26:00,
2013-11-19 21:31:00,26.1,20.1,30.27,North,353,4.6,4.6,78,0.00,CLR,,0.00,WeatherDisplay:10.37,2013-11-20 02:31:00,
2013-11-19 21:36:00,26.1,20.1,30.27,North,353,2.3,0.0,78,0.00,CLR,,0.00,WeatherDisplay:10.37,2013-11-20 02:36:00,
2013-11-19 21:41:00,25.7,19.8,30.27,North,9,2.3,0.0,78,0.00,CLR,,0.00,WeatherDisplay:10.37,2013-11-20 02:41:00,
2013-11-19 21:46:00,25.3,19.4,30.27,North,353,3.5,3.5,78,0.00,CLR,,0.00,WeatherDisplay:10.37,2013-11-20 02:46:00,
2013-11-19 21:51:00,25.0,19.1,30.30,North,2,0.0,0.0,78,0.00,CLR,,0.00,WeatherDisplay:10.37,2013-11-20 02:51:00,
2013-11-19 21:56:00,24.8,19.8,30.30,North,2,0.0,0.0,81,0.00,CLR,,0.00,WeatherDisplay:10.37,2013-11-20 02:56:00,
2013-11-19 22:01:00,24.6,19.6,30.30,North,3,0.0,0.0,81,0.00,CLR,,0.00,WeatherDisplay:10.37,2013-11-20 03:01:00,
2013-11-19 22:06:00,24.6,19.6,30.30,North,1,0.0,0.0,81,0.00,CLR,,0.00,WeatherDisplay:10.37,2013-11-20 03:06:00,
2013-11-19 22:11:00,24.4,19.4,30.30,North,11,0.0,0.0,81,0.00,CLR,,0.00,WeatherDisplay:10.37,2013-11-20 03:11:00,
2013-11-19 22:16:00,24.1,19.1,30.30,North,11,0.0,0.0,81,0.00,CLR,,0.00,WeatherDisplay:10.37,2013-11-20 03:16:00,
2013-11-19 22:21:00,23.9,18.9,30.30,NNE,29,2.7,0.0,81,0.00,CLR,,0.00,WeatherDisplay:10.37,2013-11-20 03:21:00,
2013-11-19 22:26:00,23.7,18.7,30.30,NNE,29,2.3,0.0,81,0.00,CLR,,0.00,WeatherDisplay:10.37,2013-11-20 03:26:00,
2013-11-19 22:31:00,23.5,18.6,30.30,NE,41,2.3,0.0,81,0.00,CLR,,0.00,WeatherDisplay:10.37,2013-11-20 03:31:00,
2013-11-19 22:36:00,23.7,19.0,30.30,NE,41,0.0,0.0,82,0.00,CLR,,0.00,WeatherDisplay:10.37,2013-11-20 03:36:00,
2013-11-19 22:41:00,23.5,18.9,30.30,NE,55,0.0,0.0,82,0.00,CLR,,0.00,WeatherDisplay:10.37,2013-11-20 03:41:00,
2013-11-19 22:46:00,23.5,18.9,30.30,NE,43,4.0,0.0,82,0.00,CLR,,0.00,WeatherDisplay:10.37,2013-11-20 03:46:00,
2013-11-19 22:51:00,23.5,18.9,30.30,NE,34,2.3,0.0,82,0.00,CLR,,0.00,WeatherDisplay:10.37,2013-11-20 03:51:00,
2013-11-19 22:56:00,23.5,18.9,30.30,NNE,32,3.5,3.5,82,0.00,CLR,,0.00,WeatherDisplay:10.37,2013-11-20 03:56:00,
2013-11-19 23:01:00,23.5,18.9,30.30,NE,38,2.3,2.3,82,0.00,CLR,,0.00,WeatherDisplay:10.37,2013-11-20 04:01:00,
2013-11-19 23:06:00,23.4,18.7,30.30,NNE,20,3.5,0.0,82,0.00,CLR,,0.00,WeatherDisplay:10.37,2013-11-20 04:06:00,
2013-11-19 23:11:00,23.5,18.9,30.30,NE,50,3.5,3.5,82,0.00,CLR,,0.00,WeatherDisplay:10.37,2013-11-20 04:11:00,
2013-11-19 23:16:00,23.7,19.0,30.30,East,95,3.5,3.5,82,0.00,CLR,,0.00,WeatherDisplay:10.37,2013-11-20 04:16:00,
2013-11-19 23:21:00,23.7,19.0,30.30,NNE,19,3.5,3.5,82,0.00,CLR,,0.00,WeatherDisplay:10.37,2013-11-20 04:21:00,
2013-11-19 23:26:00,23.7,19.0,30.30,ENE,65,3.5,3.5,82,0.00,CLR,,0.00,WeatherDisplay:10.37,2013-11-20 04:26:00,
2013-11-19 23:31:00,23.5,18.9,30.30,NNE,17,3.5,3.5,82,0.00,CLR,,0.00,WeatherDisplay:10.37,2013-11-20 04:31:00,
2013-11-19 23:36:00,23.7,19.6,30.30,NNE,31,3.5,3.5,84,0.00,CLR,,0.00,WeatherDisplay:10.37,2013-11-20 04:36:00,
2013-11-19 23:41:00,24.1,19.7,30.30,ESE,104,3.5,3.5,83,0.00,CLR,,0.00,WeatherDisplay:10.37,2013-11-20 04:41:00,
2013-11-19 23:46:00,24.3,19.8,30.30,NE,47,3.5,3.5,83,0.00,CLR,,0.00,WeatherDisplay:10.37,2013-11-20 04:46:00,
2013-11-19 23:51:00,24.3,19.8,30.30,NNE,30,4.9,0.0,83,0.00,CLR,,0.00,WeatherDisplay:10.37,2013-11-20 04:51:00,
2013-11-19 23:56:00,24.4,20.0,30.30,ENE,73,2.3,2.3,83,0.00,CLR,,0.00,WeatherDisplay:10.37,2013-11-20 04:56:00,